[[{"header":{"parameterUnit":"m.s-1","parameterCategory":1,"la1":30.2991,"la2":30.254,"lo1":-89.0895,"lo2":-89.0444,"dy":0.0017,"dx":0.0017,"nx":28,"ny":28,"refTime":"2024-05-17T09:00:00:Z","depth":0,"parameterNumber":2,"parameterNumberName":"U-component_of_WINDS"},"data":[0,0,0,0,0,0,0,0,0,0,0,0,0,0,0,0,0,0,0,0,0,0,0,0,0,0,0,0,0,0,0,0,0,0,0,0,0,0,0,0,0,0,0,0,0,0,0,0,0,0,0,0,0,0,0,0,0,0,-1.2246,-1.2247,0,-1.2312,-1.2313,-1.2314,-1.2311,-1.231,-1.2309,-1.2309,-1.2378,-1.2381,-1.2383,0,0,0,0,0,0,0,0,0,0,0,0,0,-1.2121,-1.2123,-1.2246,-1.2247,-1.2248,-1.2312,-1.2313,-1.2314,-1.2311,-1.231,-1.2309,-1.2308,-1.2377,-1.238,-1.2384,0,0,0,0,0,0,0,0,0,0,0,0,0,-1.218,-1.2124,-1.2246,-1.2254,-1.2256,-1.2312,-1.2313,-1.2314,-1.2312,-1.231,-1.2309,-1.2308,-1.2376,-1.238,-1.2384,-1.2437,0,0,-1.2397,-1.2398,0,0,0,0,0,0,0,0,-1.2177,-1.2184,-1.2252,-1.2254,-1.2256,-1.2302,-1.2294,-1.2355,-1.2312,-1.2291,-1.2309,-1.2307,-1.2354,-1.236,-1.2375,-1.244,-1.2443,-1.2397,-1.2399,-1.2401,-1.2402,0,0,0,0,0,0,0,-1.2172,-1.2182,-1.2272,-1.2253,-1.2255,-1.2256,-1.2262,-1.2306,-1.2329,-1.2292,-1.2292,-1.23,-1.2355,-1.2371,-1.2377,-1.2444,-1.2397,-1.24,-1.2403,-1.2405,-1.2556,-1.2558,0,0,0,0,0,0,-1.2166,-1.2178,-1.227,-1.2274,-1.2212,-1.2259,-1.2267,-1.2289,-1.2329,-1.2334,-1.2301,-1.23,-1.2365,-1.2372,-1.2379,-1.2444,-1.2401,-1.2405,-1.2407,-1.2555,-1.2557,-1.2558,0,0,0,0,0,0,-1.2164,-1.2174,-1.2268,-1.2226,-1.2238,-1.2263,-1.2287,-1.2291,-1.2307,-1.2335,-1.234,-1.2314,-1.2364,-1.2374,-1.2423,-1.2446,-1.2407,-1.241,-1.2553,-1.2555,-1.2558,-1.2574,0,0,0,0,0,0,-1.216,-1.2173,-1.2193,-1.2227,-1.224,-1.2309,-1.2289,-1.2293,-1.2314,-1.2313,-1.2348,-1.2353,-1.2364,-1.2417,-1.2427,-1.2451,-1.2414,-1.2551,-1.2554,-1.2557,-1.2571,-1.2576,-1.2581,0,0,0,0,0,-1.2155,-1.2196,-1.2194,-1.2205,-1.2265,-1.231,-1.2318,-1.2329,-1.2316,-1.2336,-1.2355,-1.2352,-1.2442,-1.2422,-1.2433,-1.2459,-1.2549,-1.2553,-1.2557,-1.2569,-1.2575,-1.2581,0,0,0,0,0,0,-1.2165,-1.22,-1.2199,-1.2251,-1.2278,-1.231,-1.2336,-1.2336,-1.2367,-1.2365,-1.2378,-1.2386,-1.2435,-1.2452,-1.2429,-1.2513,-1.2494,-1.25,-1.25,-1.2506,-1.2511,-1.2506,-1.2417,0,0,0,0,0,-1.2173,-1.2206,-1.2235,-1.2278,-1.2291,-1.2311,-1.2331,-1.2338,-1.2366,-1.2378,-1.2399,-1.2428,-1.2463,-1.2485,-1.2519,-1.2574,-1.2582,-1.2597,-1.2602,-1.2606,-1.2611,-1.2642,-1.2649,-1.257,-1.257,-1.257,0,0,-1.219,-1.2213,-1.2233,-1.2281,-1.2302,-1.2336,-1.2321,-1.2358,-1.2384,-1.2384,-1.2431,-1.2448,-1.2481,-1.2533,-1.2557,-1.2548,-1.2635,-1.2611,-1.2613,-1.2617,-1.2646,-1.2654,-1.266,-1.2573,-1.2572,-1.2572,0,0,-1.2239,-1.226,-1.2298,-1.232,-1.2352,-1.2365,-1.2374,-1.2407,-1.2418,-1.2465,-1.2466,-1.2497,-1.2557,-1.258,-1.26,-1.2658,-1.2657,-1.2668,-1.2693,-1.2723,-1.273,-1.2735,-1.2756,-1.2764,-1.2673,-1.2673,-1.2673,0,-1.2257,-1.2308,-1.2318,-1.2355,-1.2376,-1.2377,-1.2416,-1.2437,-1.2479,-1.2494,-1.2483,-1.2558,-1.258,-1.2638,-1.2652,-1.2668,-1.2679,-1.2664,-1.2728,-1.2733,-1.2739,-1.2759,-1.2767,-1.2674,-1.2674,-1.2674,-1.2674,0,-1.2328,-1.2363,-1.2391,-1.243,-1.2454,-1.2492,-1.2509,-1.2532,-1.2537,-1.2551,-1.26,-1.2626,-1.2665,-1.2679,-1.2684,-1.2738,-1.2732,-1.2725,-1.2706,-1.2747,-1.2767,-1.2775,-1.2676,-1.2676,-1.2675,-1.2675,0,0,-1.2385,-1.2429,-1.2439,-1.2457,-1.2493,-1.2521,-1.256,-1.2597,-1.2617,-1.2646,-1.2679,-1.273,-1.2723,-1.2745,-1.2753,-1.2779,-1.2824,-1.2768,-1.2769,-1.2778,-1.2885,-1.2891,-1.29,-1.2823,-1.2825,-1.2826,-1.2883,0,-1.2438,-1.2505,-1.2515,-1.2575,-1.2608,-1.2609,-1.2643,-1.2669,-1.2683,-1.2714,-1.2731,-1.2766,-1.2755,-1.2768,-1.2794,-1.2813,-1.2845,-1.2809,-1.2855,-1.2856,-1.2847,-1.291,-1.2916,-1.2968,-1.289,-1.2892,-1.2893,0,-1.2508,-1.2538,-1.2601,-1.2632,-1.2647,-1.2677,-1.2712,-1.2741,-1.2771,-1.278,-1.2805,-1.2809,-1.285,-1.283,-1.2886,-1.2861,-1.2881,-1.2893,-1.2895,-1.29,-1.2877,-1.2917,-1.2985,-1.2993,-1.2904,-1.2903,-1.2903,0,-1.2544,-1.26,-1.2645,-1.2661,-1.2698,-1.2719,-1.2736,-1.2764,-1.2786,-1.2818,-1.2832,-1.2868,-1.2888,-1.2916,-1.293,-1.2914,-1.2986,-1.2967,-1.2995,-1.2995,-1.3011,-1.3009,-1.3083,-1.3022,-1.3022,-1.3022,-1.3022,0,-1.2602,-1.2641,-1.2662,-1.2689,-1.2733,-1.2744,-1.2787,-1.2804,-1.2829,-1.286,-1.2864,-1.2893,-1.291,-1.2942,-1.2954,-1.3,-1.3008,-1.3017,-1.302,-1.3017,-1.3016,-1.303,-1.3027,-1.3024,-1.3024,-1.3023,-1.3023,0,-1.265,-1.2665,-1.2714,-1.2745,-1.2754,-1.2785,-1.2812,-1.2839,-1.2854,-1.2893,-1.2904,-1.2926,-1.2965,-1.2981,-1.3029,-1.3036,-1.3089,-1.3089,-1.3078,-1.308,-1.3107,-1.3104,-1.3193,-1.3206,-1.3136,-1.3137,-1.3137,0,-1.2686,-1.2716,-1.275,-1.2771,-1.2788,-1.2821,-1.2844,-1.2857,-1.288,-1.2916,-1.2939,-1.2977,-1.3009,-1.307,-1.3091,-1.3128,-1.3129,-1.3157,-1.3134,-1.3131,-1.313,-1.3128,-1.3131,-1.3162,-1.3162,-1.3163,-1.3163,0,-1.2749,-1.2755,-1.2787,-1.2821,-1.2847,-1.2875,-1.2902,-1.2919,-1.2937,-1.2963,-1.3001,-1.3026,-1.3074,-1.3112,-1.315,-1.3168,-1.3169,-1.317,-1.3179,-1.3177,-1.317,-1.3174,-1.309,-1.3168,-1.3168,-1.3167,-1.3167,-1.3167,-1.2793,-1.2819,-1.2847,-1.2882,-1.2904,-1.2929,-1.2956,-1.2974,-1.3006,-1.3045,-1.3051,-1.3093,-1.3122,-1.3173,-1.3193,-1.3226,-1.3219,-1.3231,-1.3235,-1.3238,-1.324,-1.3164,-1.3233,-1.3233,-1.3233,-1.3233,-1.3232,0,-1.2857,-1.2875,-1.2906,-1.2944,-1.2972,-1.2969,-1.2999,-1.3023,-1.3059,-1.3086,-1.3117,-1.3161,-1.3198,-1.3222,-1.326,-1.3282,-1.3284,-1.3292,-1.329,-1.3295,-1.3243,-1.3232,-1.329,-1.329,-1.329,-1.329,-1.329,-1.329,-1.2893,-1.2938,-1.2947,-1.3002,-1.302,-1.306,-1.3078,-1.3102,-1.3123,-1.3173,-1.3203,-1.3218,-1.3244,-1.3284,-1.3318,-1.3324,-1.3338,-1.3347,-1.3353,-1.3304,-1.3298,-1.3293,-1.3282,-1.3349,-1.3349,-1.3401,-1.3402,-1.3402]},{"header":{"parameterUnit":"m.s-1","parameterCategory":1,"la1":30.2991,"la2":30.254,"lo1":-89.0895,"lo2":-89.0444,"dy":0.0017,"dx":0.0017,"nx":28,"ny":28,"refTime":"2024-05-17T09:00:00:Z","depth":0,"parameterNumber":3,"parameterNumberName":"V-component_of_WINDS"},"data":[0,0,0,0,0,0,0,0,0,0,0,0,0,0,0,0,0,0,0,0,0,0,0,0,0,0,0,0,0,0,0,0,0,0,0,0,0,0,0,0,0,0,0,0,0,0,0,0,0,0,0,0,0,0,0,0,0,0,2.6118,2.6118,0,2.6133,2.6133,2.6133,2.6107,2.6106,2.6105,2.6104,2.6118,2.6119,2.6121,0,0,0,0,0,0,0,0,0,0,0,0,0,2.6067,2.6068,2.6118,2.6118,2.6119,2.6132,2.6133,2.6133,2.6107,2.6106,2.6105,2.6104,2.6118,2.6119,2.6121,0,0,0,0,0,0,0,0,0,0,0,0,0,2.6086,2.6069,2.6118,2.6107,2.6107,2.6132,2.6133,2.6133,2.6107,2.6106,2.6105,2.6103,2.6117,2.6119,2.6121,2.6158,0,0,2.6126,2.6127,0,0,0,0,0,0,0,0,2.6085,2.6088,2.6109,2.6108,2.6107,2.6117,2.612,2.6141,2.6108,2.6107,2.6104,2.6103,2.6119,2.612,2.6126,2.6158,2.6159,2.6126,2.6128,2.6128,2.6129,0,0,0,0,0,0,0,2.6084,2.6087,2.6124,2.6109,2.6108,2.6101,2.6103,2.6124,2.612,2.6107,2.6105,2.6107,2.6118,2.6124,2.6126,2.6159,2.6126,2.6128,2.6129,2.613,2.6221,2.6223,0,0,0,0,0,0,2.6084,2.6087,2.6123,2.6124,2.6093,2.6103,2.6105,2.6115,2.612,2.6119,2.6108,2.6106,2.6122,2.6124,2.6126,2.6168,2.6128,2.613,2.6131,2.622,2.6222,2.6223,0,0,0,0,0,0,2.6083,2.6088,2.6123,2.6105,2.6109,2.6106,2.6117,2.6116,2.6122,2.6121,2.612,2.6115,2.6121,2.6124,2.615,2.6169,2.6131,2.6132,2.6218,2.6221,2.6222,2.6254,0,0,0,0,0,0,2.6082,2.6088,2.6102,2.6105,2.611,2.6147,2.6118,2.6117,2.6125,2.6122,2.6127,2.6126,2.612,2.6147,2.6152,2.617,2.6134,2.6217,2.6219,2.6222,2.6251,2.6257,2.6262,0,0,0,0,0,2.608,2.611,2.6103,2.6107,2.6128,2.6148,2.615,2.6142,2.6127,2.6141,2.614,2.6126,2.6166,2.615,2.6155,2.6174,2.6215,2.6219,2.6222,2.6249,2.6256,2.6262,0,0,0,0,0,0,2.6109,2.6111,2.6102,2.6134,2.6141,2.6143,2.6161,2.615,2.6161,2.6158,2.6148,2.6149,2.6177,2.6178,2.616,2.621,2.6188,2.6192,2.6207,2.6214,2.6219,2.6217,2.6135,0,0,0,0,0,2.6119,2.6135,2.6136,2.6164,2.6168,2.6164,2.6172,2.6166,2.6172,2.6175,2.6176,2.6182,2.6196,2.6205,2.6218,2.6252,2.6252,2.6268,2.6273,2.6277,2.628,2.6297,2.6303,2.6233,2.6233,2.6233,0,0,2.614,2.6143,2.6154,2.617,2.6175,2.6191,2.6166,2.6185,2.6197,2.6178,2.6202,2.6203,2.6209,2.6239,2.6252,2.6241,2.63,2.6281,2.6284,2.6285,2.6301,2.6307,2.6313,2.6235,2.6235,2.6235,0,0,2.6186,2.6191,2.6214,2.6219,2.6226,2.6223,2.6229,2.6232,2.6232,2.6257,2.6242,2.6256,2.628,2.6285,2.6291,2.6338,2.6326,2.6343,2.637,2.6386,2.6391,2.6396,2.6412,2.6417,2.6347,2.6347,2.6347,0,2.6211,2.6236,2.6228,2.6247,2.6254,2.6237,2.626,2.6266,2.6276,2.6281,2.6269,2.6299,2.6302,2.6332,2.6344,2.6349,2.6355,2.6342,2.6391,2.6396,2.64,2.6415,2.6421,2.6348,2.6348,2.6348,2.6348,0,2.6265,2.6283,2.6301,2.6311,2.632,2.6342,2.6336,2.6347,2.6339,2.6337,2.6362,2.6365,2.6378,2.6385,2.6378,2.6413,2.6406,2.6393,2.6371,2.6409,2.6422,2.6428,2.6351,2.6351,2.635,2.6349,0,0,2.6329,2.6335,2.6341,2.6345,2.6352,2.6365,2.6385,2.6397,2.6406,2.6414,2.643,2.6451,2.6438,2.6445,2.6438,2.6453,2.6488,2.6438,2.6438,2.6446,2.6526,2.6535,2.6541,2.6481,2.6482,2.6483,2.6525,0,2.6374,2.6409,2.6402,2.6435,2.645,2.6435,2.6452,2.6458,2.6457,2.6469,2.6468,2.6482,2.6465,2.6469,2.6483,2.6481,2.6504,2.6478,2.6494,2.6495,2.6492,2.6549,2.6558,2.6597,2.653,2.6531,2.6532,0,2.643,2.644,2.6475,2.6478,2.6484,2.65,2.651,2.6523,2.6528,2.6526,2.6533,2.6524,2.6543,2.6522,2.6548,2.6531,2.6537,2.6537,2.6539,2.6538,2.6515,2.6548,2.661,2.6615,2.654,2.654,2.6539,0,2.6471,2.6493,2.6517,2.6521,2.6525,2.6537,2.6539,2.6543,2.6551,2.656,2.6565,2.6576,2.6582,2.6591,2.6584,2.657,2.6611,2.6589,2.6609,2.6609,2.6617,2.6616,2.6678,2.6624,2.6624,2.6623,2.6623,0,2.652,2.6542,2.6535,2.6549,2.6573,2.6565,2.6588,2.6589,2.6593,2.6606,2.6594,2.6607,2.6599,2.6611,2.6607,2.6628,2.6631,2.6629,2.6627,2.6629,2.6629,2.6632,2.6629,2.6625,2.6625,2.6624,2.6624,0,2.6569,2.6566,2.659,2.6592,2.6593,2.661,2.6612,2.6625,2.6623,2.664,2.6644,2.6641,2.6654,2.665,2.6664,2.6661,2.6688,2.6683,2.6686,2.6684,2.6703,2.67,2.6768,2.6775,2.6717,2.6718,2.6719,0,2.66,2.6616,2.662,2.6629,2.6632,2.6646,2.6653,2.6646,2.6654,2.6661,2.6673,2.6686,2.6695,2.6718,2.6717,2.6728,2.6722,2.6745,2.6724,2.6725,2.672,2.6719,2.672,2.6749,2.6749,2.675,2.675,0,2.6655,2.6652,2.6663,2.6674,2.6683,2.6691,2.6698,2.6706,2.6699,2.6709,2.6722,2.673,2.6745,2.6757,2.6767,2.6769,2.6758,2.6757,2.6762,2.6763,2.6763,2.6762,2.6695,2.6755,2.6755,2.6755,2.6754,2.6754,2.6695,2.6708,2.6712,2.6725,2.6729,2.6736,2.6748,2.6747,2.6759,2.677,2.6765,2.6781,2.6786,2.6798,2.6801,2.6813,2.6804,2.6811,2.6812,2.6814,2.6815,2.6763,2.6815,2.6814,2.6814,2.6814,2.6814,0,2.6747,2.6749,2.6761,2.6771,2.6781,2.6771,2.6778,2.6786,2.68,2.6806,2.6815,2.683,2.6842,2.6842,2.6853,2.6862,2.6857,2.6865,2.6863,2.6864,2.6824,2.6818,2.6868,2.6868,2.6868,2.6868,2.6868,2.6868,2.6775,2.6796,2.6794,2.6817,2.6819,2.6834,2.6839,2.6845,2.6849,2.6866,2.6876,2.6876,2.6879,2.6889,2.69,2.6899,2.6903,2.6912,2.691,2.6872,2.6867,2.6861,2.6856,2.6913,2.6913,2.6948,2.6948,2.6949]}]]